| time (UTC) | temp C | wind direction | speed KPH | gust KPH | rain 1hr cm | rain 24hr cm | rain mn cm | humidity % | barometer mb |
| 20260906004026 | 26 | 137 | 1.6 | 16.1 | 0.00 | 0.00 | 0.00 | 72 | 1014.9 |
| 20260906003526 | 27 | 159 | 6.4 | 16.1 | 0.00 | 0.00 | 0.00 | 71 | 1014.7 |
| 20260906003027 | 27 | 136 | 6.4 | 16.1 | 0.00 | 0.00 | 0.00 | 71 | 1014.5 |
| 20260906002526 | 27 | 164 | 8.0 | 19.3 | 0.00 | 0.00 | 0.00 | 71 | 1014.6 |
| 20260906002026 | 27 | 143 | 8.0 | 19.3 | 0.00 | 0.00 | 0.00 | 70 | 1014.6 |
| 20260906001527 | 27 | 162 | 6.4 | 19.3 | 0.00 | 0.00 | 0.00 | 70 | 1014.6 |
| 20260906001026 | 27 | 139 | 6.4 | 16.1 | 0.00 | 0.00 | 0.00 | 69 | 1014.6 |
| 20260906000526 | 27 | 167 | 9.7 | 17.7 | 0.00 | 0.00 | 0.00 | 69 | 1014.6 |
| 20260906000026 | 28 | 165 | 6.4 | 24.1 | 0.00 | 0.00 | 0.00 | 68 | 1014.4 |
| 20260905235526 | 28 | 85 | 8.0 | 24.1 | 0.00 | 0.00 | 0.00 | 68 | 1014.1 |
| 20260905235026 | 28 | 141 | 9.7 | 22.5 | 0.00 | 0.00 | 0.00 | 68 | 1013.9 |
| 20260905234524 | 28 | 103 | 6.4 | 22.5 | 0.00 | 0.00 | 0.00 | 68 | 1013.7 |
| 20260905234025 | 28 | 64 | 8.0 | 22.5 | 0.00 | 0.00 | 0.00 | 67 | 1013.5 |
| 20260905233526 | 28 | 113 | 9.7 | 22.5 | 0.00 | 0.00 | 0.00 | 67 | 1013.5 |
| 20260905233026 | 28 | 53 | 9.7 | 19.3 | 0.00 | 0.00 | 0.00 | 67 | 1013.4 |
| 20260905232524 | 28 | 101 | 8.0 | 20.9 | 0.00 | 0.00 | 0.00 | 67 | 1013.5 |
| 20260905232024 | 28 | 115 | 8.0 | 20.9 | 0.00 | 0.00 | 0.00 | 67 | 1013.4 |
| 20260905231528 | 28 | 81 | 9.7 | 19.3 | 0.00 | 0.00 | 0.00 | 66 | 1013.3 |
| 20260905231025 | 28 | 62 | 8.0 | 19.3 | 0.00 | 0.00 | 0.00 | 66 | 1013.3 |
| 20260905230525 | 28 | 50 | 8.0 | 22.5 | 0.00 | 0.00 | 0.00 | 65 | 1013.3 |
| 20260905230026 | 28 | 78 | 11.3 | 22.5 | 0.00 | 0.00 | 0.00 | 65 | 1013.3 |
| 20260905225524 | 28 | 42 | 6.4 | 19.3 | 0.00 | 0.00 | 0.00 | 64 | 1013.2 |
| 20260905225023 | 28 | 93 | 8.0 | 19.3 | 0.00 | 0.00 | 0.00 | 64 | 1013.2 |
| 20260905224523 | 28 | 32 | 8.0 | 22.5 | 0.00 | 0.00 | 0.00 | 64 | 1013.2 |
| 20260905224023 | 29 | 56 | 4.8 | 22.5 | 0.00 | 0.00 | 0.00 | 63 | 1013.2 |
| 20260905223522 | 29 | 88 | 6.4 | 22.5 | 0.00 | 0.00 | 0.00 | 63 | 1013.1 |
| 20260905223022 | 29 | 88 | 8.0 | 20.9 | 0.00 | 0.00 | 0.00 | 63 | 1013.2 |
| 20260905222525 | 29 | 107 | 6.4 | 16.1 | 0.00 | 0.00 | 0.00 | 66 | 1013.1 |
| 20260905222022 | 28 | 115 | 8.0 | 22.5 | 0.00 | 0.00 | 0.00 | 66 | 1013.1 |
| 20260905221520 | 28 | 88 | 8.0 | 22.5 | 0.00 | 0.00 | 0.00 | 66 | 1013.1 |
| 20260905221020 | 28 | 83 | 12.9 | 22.5 | 0.00 | 0.00 | 0.00 | 66 | 1013.1 |
| 20260905220519 | 28 | 76 | 11.3 | 22.5 | 0.00 | 0.00 | 0.00 | 66 | 1013.2 |
| 20260905220018 | 28 | 51 | 11.3 | 24.1 | 0.00 | 0.00 | 0.00 | 66 | 1013.2 |
| 20260905215519 | 28 | 123 | 14.5 | 24.1 | 0.00 | 0.00 | 0.00 | 66 | 1013.3 |
| 20260905215018 | 28 | 91 | 11.3 | 22.5 | 0.00 | 0.00 | 0.00 | 66 | 1013.3 |
| 20260905214517 | 28 | 57 | 11.3 | 25.7 | 0.00 | 0.00 | 0.00 | 66 | 1013.4 |
| 20260905214016 | 28 | 97 | 12.9 | 22.5 | 0.00 | 0.00 | 0.00 | 66 | 1013.5 |
| 20260905213520 | 28 | 86 | 12.9 | 22.5 | 0.00 | 0.00 | 0.00 | 66 | 1013.5 |
| 20260905213018 | 28 | 96 | 12.9 | 25.7 | 0.00 | 0.00 | 0.00 | 65 | 1013.6 |
| 20260905212515 | 28 | 101 | 14.5 | 25.7 | 0.00 | 0.00 | 0.00 | 66 | 1013.7 |
| 20260905212014 | 28 | 150 | 12.9 | 25.7 | 0.00 | 0.00 | 0.00 | 66 | 1013.7 |
| 20260905211516 | 28 | 71 | 12.9 | 20.9 | 0.00 | 0.00 | 0.00 | 67 | 1013.8 |
| 20260905211014 | 28 | 84 | 8.0 | 22.5 | 0.00 | 0.00 | 0.00 | 67 | 1013.8 |
| 20260905210514 | 28 | 82 | 14.5 | 24.1 | 0.00 | 0.00 | 0.00 | 67 | 1013.9 |
| 20260905210017 | 28 | 81 | 9.7 | 29.0 | 0.00 | 0.00 | 0.00 | 68 | 1014.1 |
| 20260905205514 | 28 | 73 | 12.9 | 29.0 | 0.00 | 0.00 | 0.00 | 67 | 1014.0 |
| 20260905205015 | 28 | 61 | 11.3 | 24.1 | 0.00 | 0.00 | 0.00 | 67 | 1014.0 |
| 20260905204512 | 27 | 88 | 9.7 | 25.7 | 0.00 | 0.00 | 0.00 | 67 | 1014.0 |
| 20260905204013 | 28 | 83 | 14.5 | 29.0 | 0.00 | 0.00 | 0.00 | 67 | 1014.2 |
| 20260905203512 | 28 | 56 | 16.1 | 29.0 | 0.00 | 0.00 | 0.00 | 66 | 1014.3 |
| 20260905203012 | 28 | 74 | 14.5 | 20.9 | 0.00 | 0.00 | 0.00 | 67 | 1014.3 |
| 20260905202511 | 27 | 63 | 11.3 | 29.0 | 0.00 | 0.00 | 0.00 | 68 | 1014.3 |
| 20260905202013 | 27 | 157 | 16.1 | 30.6 | 0.00 | 0.00 | 0.00 | 69 | 1014.4 |
| 20260905201512 | 27 | 100 | 17.7 | 30.6 | 0.00 | 0.00 | 0.00 | 69 | 1014.7 |
| 20260905201011 | 27 | 105 | 16.1 | 30.6 | 0.00 | 0.00 | 0.00 | 69 | 1014.7 |
| 20260905200511 | 27 | 77 | 16.1 | 27.4 | 0.00 | 0.00 | 0.00 | 69 | 1014.9 |
| 20260905200010 | 27 | 97 | 11.3 | 29.0 | 0.00 | 0.00 | 0.00 | 69 | 1015.0 |
| 20260905195511 | 27 | 112 | 17.7 | 29.0 | 0.00 | 0.00 | 0.00 | 70 | 1015.0 |
| 20260905195011 | 27 | 94 | 14.5 | 27.4 | 0.00 | 0.00 | 0.00 | 70 | 1014.9 |
| 20260905194510 | 27 | 85 | 17.7 | 32.2 | 0.00 | 0.00 | 0.00 | 69 | 1014.9 |
| 20260905194010 | 27 | 40 | 11.3 | 24.1 | 0.00 | 0.00 | 0.00 | 70 | 1015.2 |
| 20260905193509 | 27 | 78 | 12.9 | 30.6 | 0.00 | 0.00 | 0.00 | 70 | 1015.2 |
| 20260905193009 | 26 | 79 | 17.7 | 30.6 | 0.00 | 0.00 | 0.00 | 71 | 1015.3 |
| 20260905192509 | 26 | 91 | 16.1 | 30.6 | 0.00 | 0.00 | 0.00 | 71 | 1015.4 |
| 20260905192009 | 26 | 77 | 12.9 | 27.4 | 0.00 | 0.00 | 0.00 | 71 | 1015.5 |
| 20260905191509 | 26 | 61 | 12.9 | 25.7 | 0.00 | 0.00 | 0.00 | 71 | 1015.4 |
| 20260905191009 | 26 | 61 | 14.5 | 29.0 | 0.00 | 0.00 | 0.00 | 72 | 1015.5 |
| 20260905190508 | 26 | 69 | 14.5 | 33.8 | 0.00 | 0.00 | 0.00 | 72 | 1015.7 |
| 20260905190009 | 25 | 36 | 14.5 | 33.8 | 0.00 | 0.00 | 0.00 | 73 | 1015.8 |
| 20260905185507 | 26 | 54 | 12.9 | 29.0 | 0.00 | 0.00 | 0.00 | 73 | 1016.0 |
| 20260905185010 | 25 | 59 | 14.5 | 29.0 | 0.00 | 0.00 | 0.00 | 73 | 1016.2 |
| 20260905184510 | 25 | 15 | 12.9 | 27.4 | 0.00 | 0.00 | 0.00 | 73 | 1016.2 |
| 20260905184006 | 25 | 59 | 11.3 | 27.4 | 0.00 | 0.00 | 0.00 | 73 | 1016.3 |
| 20260905183506 | 25 | 110 | 12.9 | 27.4 | 0.00 | 0.00 | 0.00 | 73 | 1016.3 |
| 20260905183007 | 25 | 42 | 16.1 | 35.4 | 0.00 | 0.00 | 0.00 | 72 | 1016.4 |
| 20260905182506 | 26 | 13 | 14.5 | 35.4 | 0.00 | 0.00 | 0.00 | 72 | 1016.4 |
| 20260905182008 | 26 | 29 | 14.5 | 29.0 | 0.00 | 0.00 | 0.00 | 72 | 1016.4 |
| 20260905181505 | 26 | 13 | 17.7 | 29.0 | 0.00 | 0.00 | 0.00 | 72 | 1016.3 |
| 20260905181007 | 26 | 30 | 17.7 | 29.0 | 0.00 | 0.00 | 0.00 | 70 | 1016.3 |
| 20260905180506 | 27 | 344 | 9.7 | 27.4 | 0.00 | 0.00 | 0.00 | 70 | 1016.3 |
| 20260905180004 | 27 | 34 | 12.9 | 30.6 | 0.00 | 0.00 | 0.00 | 68 | 1016.4 |
| 20260905175504 | 28 | 5 | 12.9 | 30.6 | 0.00 | 0.00 | 0.00 | 67 | 1016.3 |
| 20260905175003 | 28 | 30 | 12.9 | 19.3 | 0.00 | 0.00 | 0.00 | 66 | 1016.4 |
| 20260905174508 | 28 | 327 | 8.0 | 17.7 | 0.00 | 0.00 | 0.00 | 67 | 1016.5 |
| 20260905174002 | 28 | 115 | 4.8 | 16.1 | 0.00 | 0.00 | 0.00 | 66 | 1016.6 |
| 20260905173501 | 28 | 27 | 4.8 | 16.1 | 0.00 | 0.00 | 0.00 | 66 | 1016.4 |
| 20260905173101 | 28 | 337 | 6.4 | 16.1 | 0.00 | 0.00 | 0.00 | 67 | 1016.6 |
| 20260905172559 | 28 | 17 | 3.2 | 14.5 | 0.00 | 0.00 | 0.00 | 68 | 1016.5 |
| 20260905172059 | 28 | 321 | 4.8 | 12.9 | 0.00 | 0.00 | 0.00 | 67 | 1016.4 |
| 20260905171633 | 28 | 271 | 4.8 | 9.7 | 0.00 | 0.00 | 0.00 | 67 | 1016.3 |
| 20260905171057 | 28 | 303 | 0.0 | 4.8 | 0.00 | 0.00 | 0.00 | 68 | 1016.2 |
| 20260905170555 | 28 | 303 | 1.6 | 4.8 | 0.00 | 0.00 | 0.00 | 69 | 1016.1 |
| 20260905165552 | 27 | 162 | 0.0 | 6.4 | 0.00 | 0.00 | 0.00 | 70 | 1016.2 |
| 20260905165051 | 27 | 159 | 1.6 | 8.0 | 0.00 | 0.00 | 0.00 | 69 | 1016.1 |
| 20260905164551 | 27 | 205 | 3.2 | 11.3 | 0.00 | 0.00 | 0.00 | 70 | 1016.1 |
| 20260905164047 | 27 | 180 | 3.2 | 11.3 | 0.00 | 0.00 | 0.00 | 72 | 1015.9 |
| 20260905163546 | 26 | 178 | 3.2 | 11.3 | 0.00 | 0.00 | 0.00 | 73 | 1016.0 |
| 20260905163052 | 26 | 161 | 3.2 | 11.3 | 0.00 | 0.00 | 0.00 | 73 | 1016.0 |
| 20260905162543 | 26 | 174 | 4.8 | 17.7 | 0.00 | 0.00 | 0.00 | 74 | 1015.9 |
| 20260905162042 | 26 | 187 | 8.0 | 17.7 | 0.00 | 0.00 | 0.00 | 74 | 1015.9 |
| 20260905161540 | 26 | 185 | 8.0 | 14.5 | 0.00 | 0.00 | 0.00 | 75 | 1015.9 |
| 20260905161039 | 25 | 216 | 6.4 | 19.3 | 0.00 | 0.00 | 0.00 | 77 | 1015.9 |
| 20260905160537 | 25 | 163 | 8.0 | 20.9 | 0.00 | 0.00 | 0.00 | 78 | 1016.0 |
| 20260905160036 | 24 | 201 | 8.0 | 19.3 | 0.00 | 0.00 | 0.00 | 79 | 1016.1 |
| 20260905155534 | 24 | 168 | 11.3 | 24.1 | 0.00 | 0.00 | 0.00 | 79 | 1015.9 |
| 20260905155032 | 23 | 174 | 11.3 | 24.1 | 0.00 | 0.00 | 0.00 | 80 | 1015.8 |
| 20260905154531 | 23 | 165 | 9.7 | 24.1 | 0.00 | 0.00 | 0.00 | 80 | 1015.9 |
| 20260905154030 | 23 | 138 | 11.3 | 22.5 | 0.00 | 0.00 | 0.00 | 81 | 1015.8 |
| 20260905153529 | 23 | 116 | 8.0 | 29.0 | 0.00 | 0.00 | 0.00 | 83 | 1016.0 |
| 20260905153028 | 22 | 146 | 14.5 | 29.0 | 0.00 | 0.00 | 0.00 | 84 | 1015.8 |
| 20260905152526 | 21 | 162 | 14.5 | 25.7 | 0.00 | 0.00 | 0.00 | 85 | 1015.9 |
| 20260905152024 | 21 | 153 | 11.3 | 19.3 | 0.00 | 0.00 | 0.00 | 85 | 1015.7 |
| 20260905151524 | 21 | 161 | 9.7 | 17.7 | 0.00 | 0.00 | 0.00 | 85 | 1015.8 |
| 20260905151022 | 21 | 135 | 6.4 | 20.9 | 0.00 | 0.00 | 0.00 | 86 | 1015.7 |
| 20260905150525 | 21 | 126 | 9.7 | 20.9 | 0.00 | 0.00 | 0.00 | 86 | 1015.6 |
| 20260905150033 | 21 | 162 | 4.8 | 22.5 | 0.00 | 0.00 | 0.00 | 86 | 1015.6 |
| 20260905145525 | 21 | 168 | 8.0 | 25.7 | 0.00 | 0.00 | 0.00 | 86 | 1015.7 |
| 20260905145021 | 21 | 76 | 9.7 | 25.7 | 0.00 | 0.00 | 0.00 | 86 | 1015.7 |
| 20260905144519 | 21 | 193 | 9.7 | 22.5 | 0.00 | 0.00 | 0.00 | 86 | 1015.8 |
| 20260905144020 | 21 | 163 | 12.9 | 25.7 | 0.00 | 0.00 | 0.00 | 87 | 1015.9 |
| 20260905143519 | 21 | 150 | 9.7 | 25.7 | 0.00 | 0.00 | 0.00 | 88 | 1015.9 |
| 20260905143018 | 20 | 145 | 6.4 | 19.3 | 0.00 | 0.00 | 0.00 | 88 | 1016.0 |
| 20260905142516 | 20 | 123 | 8.0 | 19.3 | 0.00 | 0.00 | 0.00 | 89 | 1015.9 |
| 20260905142020 | 20 | 154 | 6.4 | 17.7 | 0.00 | 0.00 | 0.00 | 90 | 1015.9 |
| 20260905141516 | 20 | 148 | 8.0 | 17.7 | 0.00 | 0.00 | 0.00 | 90 | 1015.8 |
| 20260905141015 | 20 | 173 | 4.8 | 17.7 | 0.00 | 0.00 | 0.00 | 91 | 1015.8 |
| 20260905140516 | 20 | 175 | 6.4 | 16.1 | 0.00 | 0.00 | 0.00 | 92 | 1015.7 |
| 20260905140015 | 19 | 136 | 4.8 | 16.1 | 0.00 | 0.00 | 0.00 | 93 | 1015.8 |
| 20260905135513 | 19 | 145 | 4.8 | 11.3 | 0.00 | 0.00 | 0.00 | 93 | 1015.8 |
| 20260905135014 | 18 | 137 | 4.8 | 11.3 | 0.00 | 0.00 | 0.00 | 94 | 1015.7 |
| 20260905134514 | 18 | 164 | 4.8 | 14.5 | 0.00 | 0.00 | 0.00 | 94 | 1015.6 |
| 20260905134010 | 18 | 140 | 6.4 | 14.5 | 0.00 | 0.00 | 0.00 | 94 | 1015.7 |
| 20260905133510 | 18 | 153 | 4.8 | 14.5 | 0.00 | 0.00 | 0.00 | 94 | 1015.7 |
| 20260905133009 | 18 | 100 | 6.4 | 12.9 | 0.00 | 0.00 | 0.00 | 94 | 1015.8 |
| 20260905132509 | 18 | 147 | 6.4 | 12.9 | 0.00 | 0.00 | 0.00 | 94 | 1015.8 |
| 20260905132007 | 18 | 137 | 3.2 | 12.9 | 0.00 | 0.00 | 0.00 | 94 | 1015.7 |
| 20260905131514 | 18 | 135 | 3.2 | 6.4 | 0.00 | 0.00 | 0.00 | 95 | 1015.7 |
| 20260905131006 | 18 | 86 | 1.6 | 12.9 | 0.00 | 0.00 | 0.00 | 95 | 1015.9 |
| 20260905130506 | 18 | 97 | 4.8 | 12.9 | 0.00 | 0.00 | 0.00 | 95 | 1015.7 |
| 20260905130004 | 18 | 78 | 1.6 | 9.7 | 0.00 | 0.00 | 0.00 | 95 | 1015.8 |
| 20260905125504 | 18 | 119 | 3.2 | 9.7 | 0.00 | 0.00 | 0.00 | 95 | 1016.1 |
| 20260905125001 | 18 | 69 | 1.6 | 9.7 | 0.00 | 0.00 | 0.00 | 95 | 1016.0 |
| 20260905124601 | 18 | 91 | 1.6 | 11.3 | 0.00 | 0.00 | 0.00 | 95 | 1015.7 |
| 20260905124059 | 18 | 154 | 4.8 | 12.9 | 0.00 | 0.00 | 0.00 | 95 | 1015.4 |
| 20260905124001 | 18 | 136 | 3.2 | 12.9 | 0.00 | 0.00 | 0.00 | 95 | 1015.4 |
| 20260905123559 | 18 | 149 | 3.2 | 12.9 | 0.00 | 0.00 | 0.00 | 95 | 1015.3 |
| 20260905123102 | 18 | 137 | 3.2 | 17.7 | 0.00 | 0.00 | 0.00 | 95 | 1015.2 |
| 20260905122559 | 18 | 122 | 8.0 | 17.7 | 0.00 | 0.00 | 0.00 | 95 | 1015.2 |
| 20260905122100 | 18 | 81 | 6.4 | 14.5 | 0.00 | 0.00 | 0.00 | 95 | 1015.2 |
| 20260905121559 | 18 | 93 | 4.8 | 14.5 | 0.00 | 0.00 | 0.00 | 95 | 1015.2 |
| 20260905121058 | 18 | 44 | 4.8 | 12.9 | 0.00 | 0.00 | 0.00 | 95 | 1015.2 |
| 20260905120557 | 18 | 117 | 3.2 | 16.1 | 0.00 | 0.00 | 0.00 | 95 | 1015.2 |
| 20260905120058 | 18 | 72 | 6.4 | 16.1 | 0.00 | 0.00 | 0.00 | 95 | 1015.2 |
| 20260905115557 | 18 | 95 | 6.4 | 14.5 | 0.00 | 0.00 | 0.00 | 95 | 1015.1 |
| 20260905115057 | 18 | 28 | 4.8 | 14.5 | 0.00 | 0.00 | 0.00 | 95 | 1015.0 |
| 20260905114607 | 18 | 115 | 6.4 | 19.3 | 0.00 | 0.00 | 0.00 | 95 | 1014.9 |
| 20260905114057 | 18 | 53 | 8.0 | 19.3 | 0.00 | 0.00 | 0.00 | 95 | 1015.0 |
| 20260905113556 | 18 | 80 | 8.0 | 16.1 | 0.00 | 0.00 | 0.00 | 95 | 1015.0 |
| 20260905113058 | 18 | 87 | 4.8 | 16.1 | 0.00 | 0.00 | 0.00 | 95 | 1015.1 |
| 20260905112556 | 18 | 104 | 8.0 | 16.1 | 0.00 | 0.00 | 0.00 | 95 | 1015.1 |
| 20260905112055 | 18 | 138 | 4.8 | 14.5 | 0.00 | 0.00 | 0.00 | 95 | 1015.1 |
| 20260905111625 | 18 | 114 | 4.8 | 16.1 | 0.00 | 0.00 | 0.00 | 95 | 1015.0 |
| 20260905111055 | 18 | 109 | 4.8 | 16.1 | 0.00 | 0.00 | 0.00 | 95 | 1014.9 |
| 20260905110554 | 18 | 153 | 4.8 | 16.1 | 0.00 | 0.00 | 0.00 | 95 | 1015.1 |
| 20260905110106 | 18 | 159 | 4.8 | 14.5 | 0.00 | 0.00 | 0.00 | 95 | 1015.0 |
| 20260905105555 | 18 | 153 | 4.8 | 14.5 | 0.00 | 0.00 | 0.00 | 95 | 1015.0 |
| 20260905105055 | 18 | 159 | 3.2 | 16.1 | 0.00 | 0.00 | 0.00 | 95 | 1015.1 |
| 20260905104615 | 18 | 128 | 4.8 | 17.7 | 0.00 | 0.00 | 0.00 | 95 | 1015.1 |
| 20260905104056 | 18 | 175 | 6.4 | 17.7 | 0.00 | 0.00 | 0.00 | 95 | 1014.9 |
| 20260905103554 | 17 | 132 | 3.2 | 14.5 | 0.00 | 0.00 | 0.00 | 95 | 1015.0 |
| 20260905103054 | 17 | 163 | 1.6 | 8.0 | 0.00 | 0.00 | 0.00 | 95 | 1015.0 |
| 20260905102553 | 17 | 140 | 3.2 | 6.4 | 0.00 | 0.00 | 0.00 | 95 | 1015.2 |
| 20260905102053 | 17 | 154 | 0.0 | 3.2 | 0.00 | 0.00 | 0.00 | 95 | 1015.2 |
| 20260905101554 | 17 | 184 | 0.0 | 0.0 | 0.00 | 0.00 | 0.00 | 95 | 1015.2 |
| 20260905101052 | 17 | 180 | 0.0 | 0.0 | 0.00 | 0.00 | 0.00 | 94 | 1015.0 |
| 20260905100553 | 17 | 180 | 0.0 | 4.8 | 0.00 | 0.00 | 0.00 | 94 | 1015.0 |
| 20260905100053 | 17 | 180 | 0.0 | 4.8 | 0.00 | 0.00 | 0.00 | 94 | 1014.8 |
| 20260905095552 | 17 | 180 | 1.6 | 4.8 | 0.00 | 0.00 | 0.00 | 94 | 1014.8 |
| 20260905095052 | 17 | 112 | 1.6 | 4.8 | 0.00 | 0.00 | 0.00 | 94 | 1014.4 |
| 20260905094704 | 17 | 164 | 0.0 | 3.2 | 0.00 | 0.00 | 0.00 | 94 | 1014.4 |
| 20260905094050 | 17 | 164 | 0.0 | 3.2 | 0.00 | 0.00 | 0.00 | 94 | 1014.5 |
| 20260905093550 | 17 | 164 | 0.0 | 4.8 | 0.00 | 0.00 | 0.00 | 94 | 1014.4 |
| 20260905093057 | 17 | 164 | 1.6 | 4.8 | 0.00 | 0.00 | 0.00 | 94 | 1014.3 |
| 20260905092551 | 18 | 107 | 0.0 | 6.4 | 0.00 | 0.00 | 0.00 | 94 | 1014.1 |
| 20260905092049 | 18 | 107 | 1.6 | 8.0 | 0.00 | 0.00 | 0.00 | 94 | 1014.0 |
| 20260905091555 | 18 | 94 | 3.2 | 12.9 | 0.00 | 0.00 | 0.00 | 94 | 1013.8 |
| 20260905091048 | 18 | 104 | 4.8 | 12.9 | 0.00 | 0.00 | 0.00 | 94 | 1013.9 |
| 20260905090548 | 18 | 102 | 1.6 | 12.9 | 0.00 | 0.00 | 0.00 | 94 | 1013.9 |
| 20260905090048 | 18 | 91 | 4.8 | 12.9 | 0.00 | 0.00 | 0.00 | 93 | 1013.8 |
| 20260905085548 | 18 | 111 | 3.2 | 12.9 | 0.00 | 0.00 | 0.00 | 93 | 1013.9 |
| 20260905085047 | 18 | 118 | 3.2 | 12.9 | 0.00 | 0.00 | 0.00 | 93 | 1013.8 |
| 20260905084558 | 18 | 80 | 3.2 | 11.3 | 0.00 | 0.00 | 0.00 | 93 | 1013.9 |
| 20260905084048 | 18 | 98 | 6.4 | 12.9 | 0.00 | 0.00 | 0.00 | 93 | 1014.1 |
| 20260905083545 | 18 | 84 | 4.8 | 12.9 | 0.00 | 0.00 | 0.00 | 93 | 1014.0 |
| 20260905083045 | 18 | 103 | 3.2 | 11.3 | 0.00 | 0.00 | 0.00 | 93 | 1014.1 |
| 20260905082545 | 18 | 107 | 3.2 | 12.9 | 0.00 | 0.00 | 0.00 | 93 | 1014.2 |
| 20260905082043 | 18 | 80 | 4.8 | 12.9 | 0.00 | 0.00 | 0.00 | 93 | 1014.3 |
| 20260905081543 | 18 | 90 | 3.2 | 12.9 | 0.00 | 0.00 | 0.00 | 93 | 1014.2 |
| 20260905081042 | 18 | 76 | 1.6 | 9.7 | 0.00 | 0.00 | 0.00 | 92 | 1014.3 |
| 20260905080541 | 18 | 133 | 1.6 | 9.7 | 0.00 | 0.00 | 0.00 | 92 | 1014.4 |
| 20260905080039 | 18 | 90 | 3.2 | 9.7 | 0.00 | 0.00 | 0.00 | 92 | 1014.5 |
| 20260905075538 | 18 | 136 | 3.2 | 8.0 | 0.00 | 0.00 | 0.00 | 92 | 1014.9 |
| 20260905075042 | 19 | 141 | 3.2 | 11.3 | 0.00 | 0.00 | 0.00 | 92 | 1014.9 |
| 20260905074538 | 19 | 99 | 1.6 | 12.9 | 0.00 | 0.00 | 0.00 | 92 | 1015.0 |
| 20260905074037 | 19 | 207 | 3.2 | 14.5 | 0.00 | 0.00 | 0.00 | 92 | 1014.8 |
| 20260905073536 | 19 | 94 | 4.8 | 14.5 | 0.00 | 0.00 | 0.00 | 92 | 1014.7 |
| 20260905073035 | 19 | 132 | 3.2 | 14.5 | 0.00 | 0.00 | 0.00 | 92 | 1014.6 |
| 20260905072534 | 19 | 94 | 4.8 | 12.9 | 0.00 | 0.00 | 0.00 | 92 | 1014.6 |
| 20260905072034 | 19 | 74 | 3.2 | 14.5 | 0.00 | 0.00 | 0.00 | 92 | 1014.7 |
| 20260905071537 | 19 | 70 | 6.4 | 14.5 | 0.00 | 0.00 | 0.00 | 92 | 1014.8 |
| 20260905071034 | 19 | 82 | 6.4 | 12.9 | 0.00 | 0.00 | 0.00 | 92 | 1014.8 |
| 20260905070533 | 19 | 111 | 4.8 | 11.3 | 0.00 | 0.00 | 0.00 | 91 | 1014.8 |
| 20260905070033 | 20 | 140 | 1.6 | 11.3 | 0.00 | 0.00 | 0.00 | 91 | 1015.0 |
| 20260905065534 | 20 | 54 | 3.2 | 8.0 | 0.00 | 0.00 | 0.00 | 91 | 1015.1 |
| 20260905065032 | 20 | 91 | 4.8 | 11.3 | 0.00 | 0.00 | 0.00 | 91 | 1015.1 |
| 20260905064532 | 20 | 173 | 4.8 | 11.3 | 0.00 | 0.00 | 0.00 | 91 | 1015.2 |
| 20260905064031 | 20 | 120 | 3.2 | 9.7 | 0.00 | 0.00 | 0.00 | 91 | 1015.1 |
| 20260905063530 | 20 | 93 | 3.2 | 12.9 | 0.00 | 0.00 | 0.00 | 91 | 1015.1 |
| 20260905063031 | 20 | 68 | 3.2 | 12.9 | 0.00 | 0.00 | 0.00 | 91 | 1015.0 |
| 20260905062531 | 20 | 85 | 6.4 | 12.9 | 0.00 | 0.00 | 0.00 | 90 | 1015.0 |
| 20260905062030 | 20 | 129 | 1.6 | 9.7 | 0.00 | 0.00 | 0.00 | 90 | 1015.2 |
| 20260905061544 | 20 | 88 | 1.6 | 9.7 | 0.00 | 0.00 | 0.00 | 90 | 1015.1 |
| 20260905061028 | 20 | 105 | 1.6 | 9.7 | 0.00 | 0.00 | 0.00 | 90 | 1015.1 |
| 20260905060528 | 20 | 138 | 3.2 | 8.0 | 0.00 | 0.00 | 0.00 | 90 | 1015.3 |
| 20260905060047 | 20 | 149 | 4.8 | 9.7 | 0.00 | 0.00 | 0.00 | 89 | 1015.3 |
| 20260905055527 | 20 | 111 | 3.2 | 9.7 | 0.00 | 0.00 | 0.00 | 89 | 1015.2 |
| 20260905055026 | 20 | 165 | 4.8 | 12.9 | 0.00 | 0.00 | 0.00 | 89 | 1015.2 |
| 20260905054534 | 20 | 56 | 4.8 | 16.1 | 0.00 | 0.00 | 0.00 | 89 | 1014.9 |
| 20260905054024 | 20 | 128 | 8.0 | 17.7 | 0.00 | 0.00 | 0.00 | 89 | 1014.7 |
| 20260905053524 | 20 | 116 | 6.4 | 17.7 | 0.00 | 0.00 | 0.00 | 88 | 1014.7 |
| 20260905053022 | 20 | 84 | 4.8 | 16.1 | 0.00 | 0.00 | 0.00 | 88 | 1014.7 |
| 20260905052521 | 21 | 74 | 6.4 | 14.5 | 0.00 | 0.00 | 0.00 | 88 | 1014.7 |
| 20260905052021 | 21 | 355 | 3.2 | 14.5 | 0.00 | 0.00 | 0.00 | 88 | 1014.8 |
| 20260905051530 | 21 | 69 | 8.0 | 16.1 | 0.00 | 0.00 | 0.00 | 88 | 1014.6 |
| 20260905051022 | 21 | 88 | 8.0 | 16.1 | 0.00 | 0.00 | 0.00 | 87 | 1014.6 |
| 20260905050518 | 21 | 79 | 3.2 | 14.5 | 0.00 | 0.00 | 0.00 | 87 | 1014.7 |
| 20260905050017 | 21 | 67 | 4.8 | 16.1 | 0.00 | 0.00 | 0.00 | 87 | 1014.6 |
| 20260905045521 | 21 | 105 | 6.4 | 17.7 | 0.00 | 0.00 | 0.00 | 87 | 1014.5 |
| 20260905045016 | 21 | 109 | 8.0 | 17.7 | 0.00 | 0.00 | 0.00 | 87 | 1014.6 |
| 20260905044516 | 21 | 126 | 8.0 | 16.1 | 0.00 | 0.00 | 0.00 | 87 | 1014.6 |
| 20260905044014 | 21 | 73 | 4.8 | 12.9 | 0.00 | 0.00 | 0.00 | 86 | 1014.8 |
| 20260905043518 | 21 | 79 | 4.8 | 14.5 | 0.00 | 0.00 | 0.00 | 86 | 1014.7 |
| 20260905043018 | 21 | 100 | 4.8 | 16.1 | 0.00 | 0.00 | 0.00 | 86 | 1014.9 |
| 20260905042514 | 21 | 94 | 6.4 | 16.1 | 0.00 | 0.00 | 0.00 | 86 | 1014.8 |
| 20260905042014 | 21 | 69 | 6.4 | 14.5 | 0.00 | 0.00 | 0.00 | 85 | 1014.8 |
| 20260905041514 | 22 | 82 | 6.4 | 14.5 | 0.00 | 0.00 | 0.00 | 85 | 1014.8 |
| 20260905041016 | 22 | 84 | 3.2 | 12.9 | 0.00 | 0.00 | 0.00 | 85 | 1014.8 |
| 20260905040514 | 22 | 96 | 4.8 | 14.5 | 0.00 | 0.00 | 0.00 | 85 | 1014.8 |
| 20260905040018 | 22 | 59 | 4.8 | 16.1 | 0.00 | 0.00 | 0.00 | 85 | 1014.6 |
| 20260905035513 | 22 | 105 | 4.8 | 16.1 | 0.00 | 0.00 | 0.00 | 84 | 1014.5 |
| 20260905035014 | 22 | 77 | 8.0 | 16.1 | 0.00 | 0.00 | 0.00 | 84 | 1014.5 |
| 20260905034515 | 22 | 99 | 8.0 | 16.1 | 0.00 | 0.00 | 0.00 | 84 | 1014.5 |
| 20260905034012 | 22 | 93 | 9.7 | 17.7 | 0.00 | 0.00 | 0.00 | 83 | 1014.4 |
| 20260905033512 | 22 | 99 | 9.7 | 17.7 | 0.00 | 0.00 | 0.00 | 83 | 1014.4 |
| 20260905033012 | 22 | 73 | 9.7 | 16.1 | 0.00 | 0.00 | 0.00 | 83 | 1014.5 |
| 20260905032512 | 23 | 55 | 8.0 | 14.5 | 0.00 | 0.00 | 0.00 | 82 | 1014.6 |
| 20260905032012 | 23 | 134 | 8.0 | 16.1 | 0.00 | 0.00 | 0.00 | 82 | 1014.8 |
| 20260905031516 | 23 | 86 | 4.8 | 16.1 | 0.00 | 0.00 | 0.00 | 81 | 1014.7 |
| 20260905031012 | 23 | 67 | 8.0 | 16.1 | 0.00 | 0.00 | 0.00 | 81 | 1014.7 |
| 20260905030511 | 23 | 117 | 4.8 | 9.7 | 0.00 | 0.00 | 0.00 | 81 | 1014.7 |
| 20260905030011 | 23 | 87 | 3.2 | 11.3 | 0.00 | 0.00 | 0.00 | 80 | 1014.8 |
| 20260905025510 | 23 | 124 | 3.2 | 11.3 | 0.00 | 0.00 | 0.00 | 79 | 1014.9 |
| 20260905025009 | 23 | 38 | 3.2 | 12.9 | 0.00 | 0.00 | 0.00 | 79 | 1014.7 |
| 20260905024513 | 23 | 123 | 4.8 | 14.5 | 0.00 | 0.00 | 0.00 | 79 | 1014.7 |
| 20260905024007 | 23 | 65 | 4.8 | 14.5 | 0.00 | 0.00 | 0.00 | 78 | 1014.5 |
| 20260905023507 | 23 | 69 | 6.4 | 14.5 | 0.00 | 0.00 | 0.00 | 77 | 1014.5 |
| 20260905023016 | 24 | 80 | 6.4 | 14.5 | 0.00 | 0.00 | 0.00 | 77 | 1014.5 |
| 20260905022507 | 24 | 98 | 6.4 | 12.9 | 0.00 | 0.00 | 0.00 | 76 | 1014.4 |
| 20260905022007 | 24 | 79 | 6.4 | 12.9 | 0.00 | 0.00 | 0.00 | 75 | 1014.5 |
| 20260905021507 | 25 | 106 | 6.4 | 12.9 | 0.00 | 0.00 | 0.00 | 74 | 1014.4 |
| 20260905021006 | 25 | 91 | 6.4 | 12.9 | 0.00 | 0.00 | 0.00 | 73 | 1014.3 |
| 20260905020504 | 25 | 90 | 6.4 | 14.5 | 0.00 | 0.00 | 0.00 | 72 | 1014.2 |
| 20260905020004 | 25 | 88 | 4.8 | 14.5 | 0.00 | 0.00 | 0.00 | 71 | 1014.1 |
| 20260905015505 | 25 | 83 | 6.4 | 11.3 | 0.00 | 0.00 | 0.00 | 70 | 1014.0 |
| 20260905015005 | 26 | 69 | 6.4 | 9.7 | 0.00 | 0.00 | 0.00 | 69 | 1014.0 |
| 20260905014504 | 26 | 73 | 3.2 | 11.3 | 0.00 | 0.00 | 0.00 | 68 | 1014.0 |
| 20260905014003 | 26 | 115 | 6.4 | 12.9 | 0.00 | 0.00 | 0.00 | 67 | 1013.9 |
| 20260905013504 | 26 | 78 | 4.8 | 14.5 | 0.00 | 0.00 | 0.00 | 66 | 1013.7 |
| 20260905013006 | 26 | 107 | 6.4 | 14.5 | 0.00 | 0.00 | 0.00 | 66 | 1013.6 |
| 20260905012503 | 26 | 74 | 4.8 | 12.9 | 0.00 | 0.00 | 0.00 | 64 | 1013.6 |
| 20260905012003 | 26 | 78 | 6.4 | 12.9 | 0.00 | 0.00 | 0.00 | 64 | 1013.4 |
| 20260905011503 | 27 | 103 | 8.0 | 12.9 | 0.00 | 0.00 | 0.00 | 64 | 1013.4 |
| 20260905011004 | 27 | 85 | 3.2 | 11.3 | 0.00 | 0.00 | 0.00 | 63 | 1013.4 |
| 20260905010501 | 27 | 69 | 4.8 | 8.0 | 0.00 | 0.00 | 0.00 | 63 | 1013.4 |
| 20260905010002 | 27 | 81 | 3.2 | 11.3 | 0.00 | 0.00 | 0.00 | 63 | 1013.4 |
| 20260905005502 | 27 | 103 | 4.8 | 11.3 | 0.00 | 0.00 | 0.00 | 63 | 1013.5 |
| 20260905005002 | 27 | 85 | 3.2 | 9.7 | 0.00 | 0.00 | 0.00 | 63 | 1013.4 |
| 20260905004502 | 27 | 98 | 3.2 | 12.9 | 0.00 | 0.00 | 0.00 | 63 | 1013.5 |